{"data":{"norad_id":53736,"intl_designator":"2022-107AN","name":"STARLINK-4652","alt_names":[],"object_type":"PAYLOAD","status":"ACTIVE","operator":null,"country":"US","launch_date":"2022-09-05","launch_site_code":"AFETR","launch_vehicle":null,"mission":null,"orbit_class":"UNKNOWN","rcs_meters":null,"size_class":null,"mass_kg":null,"dimensions":null,"purposes":["comms"],"wikipedia_slug":null,"has_3d_model":false,"image_url":null,"decayed_at":null,"tle_current":{"epoch":"2026-09-20T22:14:28.881888Z","epoch_age_seconds":47481,"freshness":"FRESH","line1":"1 53736U 22107AN  26263.92672317 -.00005156  00000+0 -13698-3 0  9990","line2":"2 53736  53.1596  81.8532 0000906  99.4666 260.6440 15.35404725224272","mean_motion":15.35404725,"eccentricity":9.06e-5,"inclination_deg":53.1596,"raan_deg":81.8532,"arg_perigee_deg":99.4666,"mean_anomaly_deg":260.644,"bstar":-0.00013698,"rev_number":22427,"period_min":93.786346788792,"perigee_km":459.09910460369,"apogee_km":460.33812404101,"semimajor_km":6837.8556143223,"source":"CELESTRAK","updated_at":"2026-09-21T09:00:32.988890Z"}}}